Date String (YYYY-MM-DD hh:mm:ss) UTC,Instrument flags,absolute air pressure of the measurement (hPa),sample flow rate (lpm),inlet stack bypass flow (lpm),air temperature of the measurement (°C),ambient temperature measured by the external sensor (°C),aerosol sample conditioner tube jacket temperature (°C),OPC LED temperature (°C),internal box temperature (°C),relative humidity of the measurement (%),span deviation,mass concentration of particles derived from Lorenz-Mie calculation of OPC scattering (μg/m³),mass concentration of particles derived from Lorenz-Mie calculation of OPC scattering (μg/m³),mass concentration of particles derived from Lorenz-Mie calculation of OPC scattering (μg/m³)
DateTimeUTC,F1_M11,P_M11,Q1_M11,Q2_M11,T1_M11,T2_M11,T3_M11,T4_M11,T5_M11,U1_M11,ZSPAN_M11,X0_M11,X2_M11,X1_M11
2023-06-07 22:00:00,SystemResetWarning,0828.1,5.00,000.00,029.2,027.4,000.0,037.6,030.7,29.2,0000.0,0011.49,0004.74,0004.14
2023-06-07 22:01:00,SystemResetWarning,0828.1,4.99,000.00,029.2,027.6,000.0,037.7,030.7,29.5,0000.0,0011.27,0004.70,0004.14
2023-06-07 22:02:00,SystemResetWarning,0828.1,4.99,000.00,029.2,027.7,000.0,037.7,030.8,31.0,0000.0,0011.21,0004.73,0004.14
2023-06-07 22:03:00,SystemResetWarning,0828.1,5.00,000.00,029.3,027.7,000.0,037.7,030.8,30.3,0000.0,0011.12,0004.72,0004.14
2023-06-07 22:04:00,SystemResetWarning,0828.1,4.99,000.00,029.3,026.1,000.0,037.6,030.9,30.0,0000.0,0011.13,0004.72,0004.14
2023-06-07 22:05:00,SystemResetWarning,0828.0,5.00,000.00,029.3,025.2,000.0,037.6,030.9,30.8,0000.0,0011.19,0004.73,0004.15
2023-06-07 22:06:00,SystemResetWarning,0828.1,5.01,000.00,029.2,025.3,000.0,037.6,030.7,29.8,0000.0,0010.42,0004.75,0004.16
2023-06-07 22:07:00,SystemResetWarning,0828.1,5.01,000.00,029.1,025.6,000.0,037.6,030.5,30.5,0000.0,0010.40,0004.80,0004.17
2023-06-07 22:08:00,SystemResetWarning,0828.1,4.99,000.00,029.1,026.0,000.0,037.6,030.6,30.4,0000.0,0010.62,0004.82,0004.19
2023-06-07 22:09:00,SystemResetWarning,0828.1,5.00,000.00,029.1,026.4,000.0,037.6,030.6,30.7,0000.0,0010.80,0004.82,0004.21
2023-06-07 22:10:00,SystemResetWarning,0828.1,5.00,000.00,029.1,026.8,000.0,037.6,030.7,30.1,0000.0,0010.60,0004.79,0004.24
2023-06-07 22:11:00,SystemResetWarning,0828.1,5.00,000.00,029.2,027.1,000.0,037.6,030.7,30.7,0000.0,0010.39,0004.80,0004.25
2023-06-07 22:12:00,SystemResetWarning,0828.2,5.00,000.00,029.2,027.4,000.0,037.7,030.7,30.8,0000.0,0010.45,0004.82,0004.25
2023-06-07 22:13:00,SystemResetWarning,0828.2,5.00,000.00,029.2,027.6,000.0,037.7,030.8,30.1,0000.0,0010.41,0004.81,0004.24
2023-06-07 22:14:00,SystemResetWarning,0828.2,5.01,000.00,029.3,027.8,000.0,037.7,030.8,29.7,0000.0,0010.65,0004.80,0004.22
2023-06-07 22:15:00,SystemResetWarning,0828.2,5.00,000.00,029.3,027.9,000.0,037.7,030.9,30.2,0000.0,0011.85,0004.80,0004.21
2023-06-07 22:16:00,SystemResetWarning,0828.2,4.99,000.00,029.3,027.7,000.0,037.7,031.0,29.8,0000.0,0011.99,0004.73,0004.18
2023-06-07 22:17:00,SystemResetWarning,0828.2,5.00,000.00,029.3,025.8,000.0,037.7,030.9,29.8,0000.0,0011.85,0004.72,0004.17
2023-06-07 22:18:00,SystemResetWarning,0828.3,5.00,000.00,029.3,024.4,000.0,037.6,030.8,29.1,0000.0,0011.52,0004.71,0004.18
2023-06-07 22:19:00,SystemResetWarning,0828.2,5.01,000.00,029.2,024.3,000.0,037.6,030.7,28.2,0000.0,0011.13,0004.70,0004.18
2023-06-07 22:20:00,SystemResetWarning,0828.3,4.99,000.00,029.1,024.6,000.0,037.6,030.4,28.5,0000.0,0010.90,0004.70,0004.17
2023-06-07 22:21:00,SystemResetWarning,0828.3,4.99,000.00,029.0,025.1,000.0,037.6,030.4,28.7,0000.0,0010.44,0004.69,0004.17
2023-06-07 22:22:00,SystemResetWarning,0828.3,5.01,000.00,029.0,025.6,000.0,037.6,030.5,28.1,0000.0,0010.37,0004.65,0004.15
2023-06-07 22:23:00,SystemResetWarning,0828.3,5.02,000.00,029.0,026.1,000.0,037.6,030.6,27.9,0000.0,0010.26,0004.61,0004.14
2023-06-07 22:24:00,SystemResetWarning,0828.4,5.00,000.00,029.0,026.5,000.0,037.6,030.6,28.3,0000.0,0010.27,0004.61,0004.14
2023-06-07 22:25:00,SystemResetWarning,0828.3,5.01,000.00,029.1,026.9,000.0,037.6,030.6,27.9,0000.0,0010.05,0004.61,0004.14
2023-06-07 22:26:00,SystemResetWarning,0828.4,4.99,000.00,029.1,027.2,000.0,037.6,030.7,27.8,0000.0,0008.83,0004.58,0004.12
2023-06-07 22:27:00,SystemResetWarning,0828.4,5.00,000.00,029.1,027.4,000.0,037.6,030.8,27.3,0000.0,0008.59,0004.61,0004.12
2023-06-07 22:28:00,SystemResetWarning,0828.4,5.00,000.00,029.2,027.6,000.0,037.6,030.8,26.9,0000.0,0008.59,0004.58,0004.11
2023-06-07 22:29:00,SystemResetWarning,0828.4,5.00,000.00,029.2,027.8,000.0,037.6,030.8,26.8,0000.0,0008.86,0004.53,0004.06
2023-06-07 22:30:00,SystemResetWarning,0828.4,5.01,000.00,029.2,027.9,000.0,037.7,030.9,26.8,0000.0,0008.70,0004.45,0003.99
2023-06-07 22:31:00,SystemResetWarning,0828.5,5.00,000.00,029.3,028.0,000.0,037.7,030.9,27.7,0000.0,0008.16,0004.38,0003.94
2023-06-07 22:32:00,SystemResetWarning,0828.5,4.99,000.00,029.3,027.8,000.0,037.7,031.0,25.3,0000.0,0007.93,0004.31,0003.87
2023-06-07 22:33:00,SystemResetWarning,0828.5,4.99,000.00,029.3,025.9,000.0,037.7,030.9,24.3,0000.0,0007.86,0004.23,0003.79
2023-06-07 22:34:00,SystemResetWarning,0828.5,5.00,000.00,029.3,025.1,000.0,037.6,030.9,23.9,0000.0,0007.78,0004.14,0003.70
2023-06-07 22:35:00,SystemResetWarning,0828.4,5.02,000.00,029.2,025.3,000.0,037.6,030.7,24.4,0000.0,0007.72,0004.03,0003.58
2023-06-07 22:36:00,SystemResetWarning,0828.5,4.99,000.00,029.2,025.7,000.0,037.6,030.6,25.3,0000.0,0007.87,0003.92,0003.48
2023-06-07 22:37:00,SystemResetWarning,0828.6,4.99,000.00,029.1,026.0,000.0,037.6,030.6,25.2,0000.0,0008.34,0003.82,0003.37
2023-06-07 22:38:00,SystemResetWarning,0828.5,5.00,000.00,029.1,026.4,000.0,037.7,030.6,25.6,0000.0,0008.18,0003.69,0003.27
2023-06-07 22:39:00,SystemResetWarning,0828.6,5.00,000.00,029.1,026.7,000.0,037.7,030.7,25.6,0000.0,0007.90,0003.58,0003.18
2023-06-07 22:40:00,SystemResetWarning,0828.6,5.01,000.00,029.2,027.0,000.0,037.7,030.7,25.6,0000.0,0007.70,0003.49,0003.09
2023-06-07 22:41:00,SystemResetWarning,0828.5,5.00,000.00,029.2,027.3,000.0,037.7,030.7,25.5,0000.0,0007.94,0003.45,0003.00
2023-06-07 22:42:00,SystemResetWarning,0828.5,4.99,000.00,029.2,027.5,000.0,037.7,030.7,25.8,0000.0,0008.04,0003.41,0002.86
2023-06-07 22:43:00,SystemResetWarning,0828.4,5.00,000.00,029.2,027.6,000.0,037.7,030.8,25.2,0000.0,0008.20,0003.36,0002.74
2023-06-07 22:44:00,SystemResetWarning,0828.4,5.00,000.00,029.3,027.8,000.0,037.7,030.8,24.3,0000.0,0008.64,0003.33,0002.68
2023-06-07 22:45:00,SystemResetWarning,0828.5,5.00,000.00,029.3,027.9,000.0,037.7,030.9,24.4,0000.0,0008.64,0003.34,0002.65
2023-06-07 22:46:00,SystemResetWarning,0828.6,5.00,000.00,029.3,028.0,000.0,037.8,030.9,24.4,0000.0,0008.70,0003.34,0002.64
2023-06-07 22:47:00,SystemResetWarning,0828.6,5.00,000.00,029.3,027.6,000.0,037.8,031.0,24.2,0000.0,0008.65,0003.34,0002.63
2023-06-07 22:48:00,SystemResetWarning,0828.6,4.99,000.00,029.3,025.6,000.0,037.7,030.9,24.2,0000.0,0008.13,0003.34,0002.63
2023-06-07 22:49:00,SystemResetWarning,0828.6,5.02,000.00,029.3,024.9,000.0,037.7,030.9,23.9,0000.0,0008.65,0003.35,0002.61
2023-06-07 22:50:00,SystemResetWarning,0828.6,5.01,000.00,029.2,025.1,000.0,037.7,030.7,25.4,0000.0,0009.23,0003.40,0002.60
2023-06-07 22:51:00,SystemResetWarning,0828.7,4.99,000.00,029.2,025.5,000.0,037.7,030.5,25.9,0000.0,0009.50,0003.46,0002.61
2023-06-07 22:52:00,SystemResetWarning,0828.6,5.00,000.00,029.1,025.8,000.0,037.7,030.5,26.2,0000.0,0010.59,0003.46,0002.60
2023-06-07 22:53:00,SystemResetWarning,0828.7,5.00,000.00,029.1,026.2,000.0,037.7,030.5,26.0,0000.0,0010.51,0003.46,0002.59
2023-06-07 22:54:00,SystemResetWarning,0828.7,5.01,000.00,029.1,026.5,000.0,037.7,030.5,25.6,0000.0,0010.73,0003.49,0002.57
2023-06-07 22:55:00,SystemResetWarning,0828.6,5.01,000.00,029.1,026.8,000.0,037.7,030.5,25.3,0000.0,0010.64,0003.51,0002.54
2023-06-07 22:56:00,SystemResetWarning,0828.6,5.00,000.00,029.1,027.0,000.0,037.7,030.5,25.1,0000.0,0011.57,0003.50,0002.51
2023-06-07 22:57:00,SystemResetWarning,0828.6,5.00,000.00,029.1,027.2,000.0,037.7,030.6,24.9,0000.0,0011.46,0003.47,0002.47
2023-06-07 22:58:00,SystemResetWarning,0828.7,4.99,000.00,029.1,027.3,000.0,037.7,030.6,24.4,0000.0,0012.58,0003.47,0002.43
2023-06-07 22:59:00,SystemResetWarning,0828.7,5.00,000.00,029.2,027.5,000.0,037.7,030.6,24.2,0000.0,0012.53,0003.45,0002.37
